Weather History for Homestead AFB, FL

Change the Weather History Date:

Sunday, March 9, 2014

  Actual Average Record
Temperature  
Mean Temperature 68 °F -  
Max Temperature 77 °F 79 °F 91 °F (2003)
Min Temperature 58 °F 58 °F 37 °F (1971)
Cooling Degree Days 2    
Growing Degree Days 18 (Base 50)    
Moisture  
Dew Point 62 °F    
Average Humidity 84    
Maximum Humidity 100    
Minimum Humidity 63    
Precipitation  
Precipitation 0.00 in - - ()
Sea Level Pressure  
Sea Level Pressure 30.14 in    
Wind  
Wind Speed 5 mph (NE)    
Max Wind Speed 10 mph    
Max Gust Speed -    
Visibility 10 miles    
Events      
Averages and records for this station are not official NWS values.
T = Trace of Precipitation, MM = Missing Value Source: NWS Daily Summary

Daily Weather History Graph

Daily Weather History Graph

Search for Another Location

Airport:

Trip Planner

Search our weather history database for the weather conditions in past years. The results will help you decide how hot, cold, wet, or windy it might be!

Date:

Astronomy

Mar. 09, 2014 Rise Set
Actual Time 7:36 AM EDT 7:27 PM EDT
Civil Twilight 7:13 AM EDT 7:50 PM EDT
Nautical Twilight 6:47 AM EDT 8:17 PM EDT
Astronomical Twilight 6:20 AM EDT 8:43 PM EDT
Moon 1:43 PM EDT (3/9) 3:36 AM EDT (3/9)
Length of Visible Light 12h 36m
Length of Day
11h 50m
First Quarter, 61% of the Moon is Illuminated
Mar 9
First Quarter
Mar 16
Full
Mar 23
Last Quarter
Mar 30
New
Apr 7
First Quarter

Hourly Weather History & Observations

Time (EDT) Temp. Dew Point Humidity Pressure Visibility Wind Dir Wind Speed Gust Speed Precip Events Conditions
12:58 AM 59.0 °F 56.1 °F 90% 30.14 in 10.0 mi West 2.3 mph - N/A   Clear
1:58 AM 58.5 °F 56.8 °F 94% 30.13 in 10.0 mi NW 3.5 mph - N/A   Clear
3:58 AM 58.5 °F 57.9 °F 98% 30.13 in 10.0 mi NW 5.8 mph - N/A   Clear
4:58 AM 59.2 °F 59.2 °F 100% 30.12 in 10.0 mi NNW 5.8 mph - N/A   Clear
5:58 AM 59.0 °F 59.0 °F 100% 30.12 in 10.0 mi NNW 2.3 mph - N/A   Clear
6:58 AM 58.3 °F 58.3 °F 100% 30.14 in 10.0 mi North 1.2 mph - N/A   Clear
7:58 AM 58.6 °F 58.6 °F 100% 30.15 in 10.0 mi NNW 2.3 mph - N/A   Clear
8:58 AM 63.1 °F 63.1 °F 100% 30.17 in 10.0 mi North 5.8 mph - N/A   Clear
9:58 AM 68.5 °F 63.9 °F 85% 30.18 in 10.0 mi North 6.9 mph - N/A   Clear
10:58 AM 72.7 °F 63.3 °F 72% 30.19 in 10.0 mi NNE 6.9 mph - N/A   Clear
11:58 AM 75.2 °F 64.8 °F 70% 30.19 in 10.0 mi Variable 4.6 mph - N/A   Partly Cloudy
12:58 PM 77.2 °F 65.1 °F 66% 30.17 in 10.0 mi ESE 8.1 mph - N/A   Partly Cloudy
1:58 PM 77.5 °F 64.6 °F 64% 30.16 in 10.0 mi East 8.1 mph - N/A   Clear
2:58 PM 77.9 °F 64.4 °F 63% 30.13 in 10.0 mi East 9.2 mph - N/A   Clear
3:58 PM 77.7 °F 65.5 °F 66% 30.11 in 10.0 mi East 10.4 mph - N/A   Clear
4:58 PM 77.4 °F 65.5 °F 67% 30.11 in 10.0 mi East 10.4 mph - N/A   Clear
5:58 PM 76.1 °F 64.9 °F 68% 30.10 in 10.0 mi ESE 8.1 mph - N/A   Clear
6:58 PM 74.3 °F 64.6 °F 72% 30.11 in 10.0 mi East 5.8 mph - N/A   Clear
7:58 PM 70.2 °F 64.6 °F 82% 30.11 in 10.0 mi East 4.6 mph - N/A   Clear
8:58 PM 69.3 °F 63.9 °F 83% 30.13 in 10.0 mi East 4.6 mph - N/A   Clear
9:58 PM 68.2 °F 63.3 °F 84% 30.15 in 10.0 mi East 3.5 mph - N/A   Clear
10:58 PM 66.7 °F 63.1 °F 88% 30.15 in 10.0 mi East 2.3 mph - N/A   Clear
11:58 PM 64.6 °F 62.2 °F 92% 30.15 in 10.0 mi WNW 3.5 mph - N/A   Scattered Clouds
12:58 AM 63.5 °F 63.5 °F 100% 30.13 in 10.0 mi Calm Calm - N/A   Clear